Location: Austin
(30.3000°N, 97.7500°W)
Time: 21:39:44
(UTC-05:00)

BlueWalker 3 - Visible Passes

Search period start: 12 July 2024 00:00
Search period end: 22 July 2024 00:00
Orbit: 480 x 492 km, 53.2° (Epoch: 12 July)

Date Brightness Start Highest point End Pass type
(mag) Time Alt. Az. Time Alt. Az. Time Alt. Az.
12 Jul 2.1 20:59:52 10° NW 21:03:34 59° NE 21:07:14 10° SE visible
13 Jul 4.6 22:14:24 10° WSW 22:15:15 11° WSW 22:16:07 10° SW visible
14 Jul 4.5 21:47:48 10° W 21:49:16 12° WSW 21:50:43 10° SW visible
15 Jul 4.5 21:21:24 10° W 21:23:15 13° WSW 21:25:05 10° SSW visible
